Hourly Weather Munnar

Today, 17 September, Friday

Time Temperature Precipitation Wind Pressure Humidity
00:00 +21°C° 0 mm 1 mps 672 mmHg 90%
01:00 +20°C° 0 mm 1 mps 672 mmHg 90%
02:00 +20°C° 0 mm 1 mps 671 mmHg 90%
03:00 +20°C° 0 mm 1 mps 671 mmHg 90%
04:00 +20°C° 0 mm 1 mps 671 mmHg 90%
05:00 +20°C° 0 mm 1 mps 671 mmHg 90%
06:00 +21°C° 0 mm 1 mps 672 mmHg 84%
07:00 +23°C° 0 mm 1 mps 673 mmHg 78%
08:00 +24°C° 0 mm 1 mps 674 mmHg 71%
09:00 +26°C° 0 mm 1 mps 674 mmHg 66%
10:00 +27°C° 0 mm 2 mps 674 mmHg 61%
11:00 +28°C° 0 mm 2 mps 674 mmHg 58%
12:00 +28°C° 0.2 mm 2 mps 673 mmHg 60%
13:00 +28°C° 0.2 mm 2 mps 673 mmHg 63%
14:00 +27°C° 0.2 mm 2 mps 672 mmHg 65%
15:00 +26°C° 0.3 mm 2 mps 672 mmHg 71%
16:00 +25°C° 0.3 mm 2 mps 672 mmHg 77%
17:00 +25°C° 0.3 mm 1 mps 672 mmHg 83%
18:00 +24°C° 0.3 mm 1 mps 672 mmHg 87%
19:00 +23°C° 0.3 mm 1 mps 673 mmHg 91%
20:00 +22°C° 0.3 mm 1 mps 673 mmHg 95%
21:00 +22°C° 0 mm 1 mps 673 mmHg 95%
22:00 +21°C° 0 mm 1 mps 673 mmHg 94%
23:00 +21°C° 0 mm 1 mps 673 mmHg 94%

Tomorrow, 18 September, Saturday

Time Temperature Precipitation Wind Pressure Humidity
00:00 +21°C° 0 mm 1 mps 673 mmHg 94%
01:00 +21°C° 0 mm 1 mps 672 mmHg 94%
02:00 +20°C° 0 mm 1 mps 672 mmHg 93%
03:00 +20°C° 0 mm 1 mps 672 mmHg 93%
04:00 +20°C° 0 mm 1 mps 672 mmHg 92%
05:00 +20°C° 0 mm 1 mps 672 mmHg 91%
06:00 +21°C° 0 mm 1 mps 673 mmHg 85%
07:00 +23°C° 0 mm 1 mps 673 mmHg 80%
08:00 +24°C° 0 mm 1 mps 674 mmHg 74%
09:00 +25°C° 0 mm 1 mps 674 mmHg 69%
10:00 +27°C° 0 mm 1 mps 675 mmHg 64%
11:00 +28°C° 0 mm 2 mps 675 mmHg 59%
12:00 +27°C° 0.5 mm 2 mps 674 mmHg 64%
13:00 +27°C° 0.5 mm 2 mps 673 mmHg 69%
14:00 +26°C° 0.5 mm 1 mps 673 mmHg 74%
15:00 +25°C° 0.4 mm 1 mps 673 mmHg 78%
16:00 +25°C° 0.4 mm 1 mps 673 mmHg 82%
17:00 +24°C° 0.4 mm 1 mps 673 mmHg 86%
18:00 +23°C° 0.2 mm 1 mps 673 mmHg 89%
19:00 +23°C° 0.2 mm 1 mps 673 mmHg 92%
20:00 +22°C° 0.2 mm 1 mps 674 mmHg 95%
21:00 +22°C° 0 mm 1 mps 674 mmHg 95%
22:00 +20°C° 0 mm 0 mps 674 mmHg 94%
23:00 +20°C° 0 mm 0 mps 674 mmHg 94%

Day after tomorrow, 19 September, Sunday

Time Temperature Precipitation Wind Pressure Humidity
00:00 +19°C° 0.2 mm 0 mps 673 mmHg 94%
01:00 +19°C° 0.2 mm 0 mps 673 mmHg 94%
02:00 +19°C° 0.2 mm 0 mps 672 mmHg 95%
03:00 +19°C° 0.1 mm 0 mps 673 mmHg 94%
04:00 +19°C° 0.1 mm 0 mps 673 mmHg 93%
05:00 +19°C° 0.1 mm 0 mps 673 mmHg 93%
06:00 +20°C° 0 mm 0 mps 674 mmHg 89%
07:00 +21°C° 0 mm 0 mps 674 mmHg 86%
08:00 +22°C° 0 mm 0 mps 675 mmHg 82%
09:00 +25°C° 0.2 mm 1 mps 675 mmHg 76%
10:00 +27°C° 0.2 mm 1 mps 675 mmHg 69%
11:00 +28°C° 0.2 mm 1 mps 675 mmHg 62%
12:00 +28°C° 0.9 mm 1 mps 675 mmHg 65%
13:00 +27°C° 0.9 mm 1 mps 674 mmHg 68%
14:00 +27°C° 0.9 mm 1 mps 673 mmHg 71%
15:00 +26°C° 1.1 mm 1 mps 673 mmHg 77%
16:00 +25°C° 1.1 mm 1 mps 673 mmHg 83%
17:00 +24°C° 1.1 mm 1 mps 673 mmHg 90%
18:00 +23°C° 0.5 mm 1 mps 673 mmHg 92%
19:00 +23°C° 0.5 mm 1 mps 674 mmHg 94%
20:00 +22°C° 0.5 mm 1 mps 674 mmHg 96%
21:00 +22°C° 0.4 mm 1 mps 674 mmHg 96%
22:00 +22°C° 0.4 mm 1 mps 674 mmHg 96%
23:00 +22°C° 0.4 mm 1 mps 674 mmHg 96%

20 September, Monday

Time Temperature Precipitation Wind Pressure Humidity
00:00 +21°C° 0.3 mm 1 mps 673 mmHg 96%
01:00 +19°C° 0.3 mm 0 mps 673 mmHg 96%
02:00 +19°C° 0.3 mm 0 mps 673 mmHg 96%
03:00 +19°C° 0.2 mm 0 mps 673 mmHg 95%
04:00 +19°C° 0.2 mm 0 mps 673 mmHg 95%
05:00 +19°C° 0.2 mm 0 mps 673 mmHg 94%
06:00 +19°C° 0.2 mm 0 mps 674 mmHg 93%
07:00 +20°C° 0.2 mm 0 mps 674 mmHg 91%
08:00 +20°C° 0.2 mm 0 mps 675 mmHg 90%
09:00 +21°C° 0 mm 0 mps 675 mmHg 84%
10:00 +22°C° 0 mm 0 mps 675 mmHg 79%
11:00 +23°C° 0 mm 0 mps 675 mmHg 73%
12:00 +25°C° 0 mm 1 mps 674 mmHg 74%
13:00 +25°C° 0 mm 1 mps 673 mmHg 75%
14:00 +25°C° 0 mm 1 mps 673 mmHg 75%
15:00 +24°C° 0 mm 1 mps 673 mmHg 80%
16:00 +24°C° 0 mm 1 mps 672 mmHg 85%
17:00 +23°C° 0 mm 1 mps 672 mmHg 90%
18:00 +22°C° 0 mm 1 mps 673 mmHg 92%
19:00 +22°C° 0 mm 1 mps 673 mmHg 94%
20:00 +22°C° 0 mm 1 mps 673 mmHg 96%
21:00 +21°C° 0 mm 1 mps 673 mmHg 96%
22:00 +21°C° 0 mm 1 mps 674 mmHg 95%
23:00 +21°C° 0 mm 1 mps 674 mmHg 95%

21 September, Tuesday

Time Temperature Precipitation Wind Pressure Humidity
00:00 +21°C° 0 mm 1 mps 673 mmHg 94%
01:00 +20°C° 0 mm 1 mps 673 mmHg 93%
02:00 +20°C° 0 mm 1 mps 672 mmHg 93%
03:00 +20°C° 0 mm 1 mps 673 mmHg 93%
04:00 +20°C° 0 mm 1 mps 673 mmHg 93%
05:00 +20°C° 0 mm 1 mps 673 mmHg 92%
06:00 +21°C° 0 mm 1 mps 674 mmHg 87%
07:00 +23°C° 0 mm 1 mps 674 mmHg 81%
08:00 +24°C° 0 mm 1 mps 675 mmHg 75%
09:00 +25°C° 0 mm 1 mps 675 mmHg 70%
10:00 +27°C° 0 mm 2 mps 675 mmHg 64%
11:00 +28°C° 0 mm 2 mps 675 mmHg 58%
12:00 +28°C° 0.6 mm 2 mps 674 mmHg 63%
13:00 +27°C° 0.6 mm 2 mps 674 mmHg 68%
14:00 +26°C° 0.6 mm 2 mps 673 mmHg 73%
15:00 +25°C° 0.5 mm 2 mps 673 mmHg 77%
16:00 +24°C° 0.5 mm 2 mps 673 mmHg 82%
17:00 +23°C° 0.5 mm 1 mps 673 mmHg 87%
18:00 +23°C° 0.1 mm 1 mps 673 mmHg 90%
19:00 +22°C° 0.1 mm 1 mps 673 mmHg 92%
20:00 +21°C° 0.1 mm 1 mps 674 mmHg 95%
21:00 +21°C° 0 mm 1 mps 674 mmHg 95%
22:00 +21°C° 0 mm 1 mps 674 mmHg 94%
23:00 +20°C° 0 mm 1 mps 674 mmHg 94%

22 September, Wednesday

Time Temperature Precipitation Wind Pressure Humidity
00:00 +20°C° 0 mm 1 mps 673 mmHg 94%
01:00 +20°C° 0 mm 1 mps 673 mmHg 94%
02:00 +20°C° 0 mm 1 mps 672 mmHg 93%
03:00 +20°C° 0 mm 1 mps 672 mmHg 93%
04:00 +20°C° 0 mm 1 mps 672 mmHg 93%
05:00 +20°C° 0 mm 1 mps 672 mmHg 93%
06:00 +21°C° 0 mm 1 mps 673 mmHg 89%
07:00 +22°C° 0 mm 1 mps 674 mmHg 84%
08:00 +24°C° 0 mm 1 mps 674 mmHg 79%
09:00 +25°C° 0.1 mm 2 mps 675 mmHg 73%
10:00 +26°C° 0.1 mm 2 mps 675 mmHg 67%
11:00 +28°C° 0.1 mm 2 mps 675 mmHg 61%
12:00 +27°C° 0.8 mm 2 mps 674 mmHg 66%
13:00 +26°C° 0.8 mm 2 mps 673 mmHg 71%
14:00 +26°C° 0.8 mm 2 mps 673 mmHg 76%
15:00 +25°C° 0.8 mm 2 mps 673 mmHg 81%
16:00 +24°C° 0.8 mm 2 mps 673 mmHg 86%
17:00 +23°C° 0.8 mm 1 mps 673 mmHg 91%
18:00 +22°C° 0.3 mm 1 mps 673 mmHg 92%
19:00 +22°C° 0.3 mm 1 mps 673 mmHg 94%
20:00 +21°C° 0.3 mm 1 mps 673 mmHg 95%
21:00 +21°C° 0.1 mm 1 mps 673 mmHg 95%
22:00 +21°C° 0.1 mm 1 mps 674 mmHg 95%
23:00 +21°C° 0.1 mm 1 mps 674 mmHg 94%
Show more

We Need Your Consent

Meteoprog and our Service Providers may store and access personal data such as cookies, device identifiers or other similar technologies on your device and process such data to personalise content and ads, as well as provide social media features and to analyse the traffic.

  • Store and/or access information on your device

    Cookies, device identifiers or other information can be stored or accessed on your device for the purposes indicated above.

  • Personalised ads and content, ad and content measurement, audience insights, and products development

    Ads and content can be personalised based on a profile. More data can be added to better personalise ads and content. Ad and content performance can be measured. Insights about the audience who saw the ads and content can be derived. Such data can be used to develop or improve user’s experience, systems and software.

By clicking ‘I Agree’ you will allow the use of indicated cookies, device identifiers, web beacons or other similar technologies. Your settings can be changed in the browser on your device.

For certain purposes, legitimate interests may be relied on, rather than consent. You can read more about this in our Privacy and Cookie Policy.